CAPE
1774 1698 1666 1725 1768 1907 2126 1995 1940 1931 1884 1998 2063 1966 1893 1738 1814 1694 1798 1819 1730 1740 1964 1779 1903 1968 1811 1853 1931 2271 2243 2208 2324 1981 1582 1604 1830 2065 2570 2465 2596 2552 2386 2307 2397 2368 2335 2382 2340 2240 2243 2172 2100 2278 2227 2284 2338 2216 2358 2336 2259 2245 2265 2265 2250 2240 2271 2370 2385 2335 2271 2157 2095 1987 1900 1853 1632 1614 1748 1738 1768 1803 1758 1621 1699
1900 1876 1951 2002 2063 2085 2270 2102 2131 2225 1987 1927 2353 2176 1902 1790 1716 1731 1891 2412 2453 2422 2714 1900 1546 1636 1919 1738 1686 1500 2222 2317 2385 2303 2030 1713 1793 1850 2312 2588 2537 2643 2483 2348 2422 2354 2418 2310 2314 2288 2272 2148 2327 2246 2237 2225 2227 2325 2339 2277 2155 2177 2196 2293 2300 2281 2373 2434 2409 2280 1950 2054 2086 2018 1982 2026 1924 1806 1727 1915 1916 1884 1991 2086 2046
2025 2180 2439 2393 2712 2656 2076 2090 1724 1943 2336 2182 2311 2154 2130 2103 2236 2398 2590 2927 2792 2770 2918 2395 1937 1657 1775 1650 1611 1818 1833 2159 2020 2235 2089 2002 1689 1876 2174 2468 2774 2492 2569 2482 2523 2504 2496 2454 2524 2524 2425 2270 2346 2370 2298 2253 2380 2414 2311 2238 2156 2053 2372 2443 2371 2344 2416 2463 2442 2254 2297 2264 2218 2137 2047 2078 2019 2160 2252 2209 2286 2160 2182 2005 2105
2219 2366 2515 2463 2713 2725 2476 2030 1855 2467 2716 2088 2180 2408 2377 2469 2942 3228 3334 3342 3152 3281 3222 2230 1518 1226 1746 1609 1751 1807 1912 2009 1776 1936 2176 2238 2118 1847 1919 1881 2386 2879 2752 2542 2577 2488 2516 2447 2471 2494 2524 2538 2536 2650 2439 2425 2361 2485 2482 2560 2612 2584 2632 2644 2695 2689 2678 2703 2726 2747 2800 2778 2754 2713 2638 2461 2583 2652 2620 2468 2325 2371 2483 2447 2323
2276 2666 2451 2426 2529 3030 2425 2154 2221 2526 2645 2472 2400 2426 2536 2889 3142 3404 3615 3348 2592 2268 2752 1538 1111 1303 1138 1191 1398 1709 1893 2127 2169 2116 2063 2206 2314 1852 1711 1840 2007 2357 2780 3077 2858 2743 2665 2696 2667 2588 2690 2627 2697 2667 2731 2786 2794 2927 3089 3124 3193 3253 3325 3335 3329 3267 3222 3232 3207 3275 3307 3274 3276 3252 3029 2762 2965 2841 2819 2908 2970 2772 2948 2603 2719
2511 2760 2682 2528 2536 2760 2870 2433 2561 2666 2469 2441 2279 2638 2782 3283 3233 3393 3100 2445 1637 1887 1698 1328 1157 1334 1223 1167 1478 1762 1891 1803 2025 2021 2133 2138 2200 2128 1879 1959 2081 1936 2102 2724 2882 3029 2950 2999 3050 3043 3077 3056 3085 3092 3105 3201 3333 3482 3595 3614 3625 3761 3873 3931 3935 3916 3890 3883 3884 3892 3851 3809 3768 3479 3268 3067 3149 3226 3203 3049 3226 3281 3146 3152 3141
2872 2883 2462 2664 1894 2007 2339 2281 2560 2705 2275 2534 2691 2771 3210 3390 3448 2992 2592 2121 1844 2188 1877 1484 1377 1279 1626 1605 1469 1660 1896 1643 1965 2013 2131 2298 2454 2169 2284 2069 2074 2066 2144 2303 2729 2935 2840 3025 3094 3147 3156 3268 3293 3305 3336 3486 3598 3684 3801 3927 4033 4080 4205 4248 4207 4260 4293 4302 4301 4283 4259 4221 4019 3529 3246 3501 3620 3594 3608 3616 3679 3616 3430 3497 3460
2803 2820 2412 2473 2342 1842 2114 2493 2634 2596 2752 2849 3260 3275 3486 3529 3356 3120 2669 1886 2185 1536 1715 1646 1505 1312 1654 2118 2002 2012 2172 2051 1996 1862 1755 2224 2363 2558 2682 2748 2588 2404 2371 2309 2687 2902 2963 3007 2993 3197 3270 3368 3436 3458 3373 3448 3469 3466 3682 4019 4220 4290 4352 4384 4334 4318 4284 4295 4342 4363 4372 4387 4086 4032 4000 3840 3881 3903 3938 3839 3785 3636 3557 3590 3545
2792 2679 2622 2128 2121 1855 1901 2157 2532 2660 2963 3187 3296 3468 3652 2809 3655 3529 3440 3369 1878 1205 1415 1774 1567 1444 1320 1343 1426 1983 1950 2231 1994 1856 1925 2221 2332 2287 2470 2721 2952 2917 3096 2944 3049 3184 3192 2226 2690 2954 3103 3337 3552 3690 3834 4006 3839 4040 4103 3996 4286 4585 4785 4910 4912 4714 4530 4419 4410 4431 4583 4654 4615 4588 4486 4272 4084 4044 3937 3799 3539 3491 3338 3378 3480
2715 2687 2541 2073 1949 1896 1929 2354 2498 2952 3300 3307 3624 3429 3346 3142 3173 3792 3763 3813 2069 1489 1378 1564 1216 1069 1188 1158 1902 1912 2072 2354 2247 2210 2411 2491 2538 2332 2286 2326 2558 2470 2546 2545 2525 3278 3280 3254 2592 2658 2858 3064 3114 3019 3129 3476 3691 3852 4049 4209 4343 4385 4435 4592 4708 4605 4624 4734 4671 4761 4876 4734 4523 4373 4104 3960 3979 3877 3788 3300 3219 3197 3195 3173 3177
2562 2564 2473 2192 1957 1976 2180 2560 2746 3412 3535 3335 3033 3244 3224 3014 3235 3566 4501 3742 3408 2766 2342 2592 1501 1142 1065 1217 1500 2372 2457 2153 2365 2523 2563 2132 1945 2071 2024 2489 2417 2571 2849 2950 2784 3172 3419 3471 3671 3680 3897 3172 2832 3019 3300 3346 3632 3730 3714 3733 3935 4300 4546 4790 4791 5087 5223 5070 5011 5063 4901 4359 4199 3988 3939 3862 3856 3548 3165 3085 3096 3178 3183 3083 2867
2403 2387 2458 2311 2041 2054 2270 2481 3084 3544 3552 2932 3136 3041 3440 3374 3351 3486 3662 3712 3342 2930 2278 2432 1552 1592 1505 1584 1606 1836 2217 2266 2398 2317 2403 2569 2346 2472 1995 2280 2707 2549 2530 2826 2846 2615 3318 4026 4246 3908 3821 3914 3050 2976 3104 3268 3278 3242 3193 3378 3588 3947 4410 4718 4968 5156 5066 4932 4840 4448 4052 3824 3942 3976 3878 3837 3631 3176 3080 3005 3038 2931 2392 1954 1918
2297 2298 2293 2404 2306 2384 2513 2851 3372 3582 3628 3444 3317 3674 3788 3630 3764 4155 3302 2857 2677 2538 1977 1902 1794 1360 1722 1165 1498 1889 1636 2678 2206 1819 1821 1898 2181 2510 2536 2370 2418 2807 3190 2941 3280 3063 3310 4251 4218 4185 4139 4553 4296 3593 3055 2974 3020 3022 2920 3110 3756 4373 4660 4987 5320 5652 5476 5065 4543 4109 3961 4022 3875 3828 3677 3570 3384 3028 2917 2844 2560 2048 1719 1544 1532
2286 2259 2324 2725 2458 2340 2676 3289 3577 3696 3857 3860 3904 3880 3739 3506 3371 3688 3527 2896 2708 2021 1784 2512 1317 1222 1310 1223 1265 1488 2023 1925 1704 1499 1663 1715 1766 2179 2375 2048 1743 2057 2719 3239 3581 3499 3548 3913 4278 3823 4437 4555 4221 4096 4798 4270 4118 3148 3118 3513 3889 4288 4512 4726 5159 5652 5007 4515 4264 4156 4025 3991 3691 3650 3350 3453 3276 2791 2571 2460 2094 1636 1588 1510 1411
2363 2201 2312 2385 2539 2697 2871 3406 3526 3608 3718 3706 3522 3621 3587 3381 3516 3359 2874 2958 2829 3066 3197 2548 1097 1494 1793 2384 1501 1707 2323 2590 1707 1618 1307 1356 1556 1562 1749 1628 1571 2208 2708 2813 2841 3261 2729 2966 3641 4133 4525 4569 4314 4243 4448 4092 4212 3613 3584 3509 3562 3827 4064 4666 5406 5243 4581 4378 4194 4165 4125 3956 3672 3480 3165 3424 3409 2808 2242 1942 1762 1673 1477 1427 1021
2142 2041 2104 2293 2618 2784 3054 3282 3639 3902 3869 3687 3403 3359 3550 3579 3208 3372 3342 2123 1634 2083 2668 2643 2319 2118 1402 1525 1498 1879 1291 1504 1795 1569 1202 1161 1106 1256 1533 1490 1565 2143 2498 2384 1479 2356 3184 3349 3507 4390 4417 4496 4267 4400 4361 4400 4206 4230 4318 4383 3676 3290 3702 4543 5304 4729 4094 4205 4409 3875 3819 3923 3680 3273 2959 3359 2947 2372 2075 1927 1851 1549 1246 899 631
2307 2386 2195 2530 2762 3070 3277 3488 3616 3774 3691 3606 3428 3077 3362 3402 3539 3570 3266 2669 1792 1873 2542 2654 2472 2486 2049 2792 2102 1795 1614 1498 1475 1951 1254 921 905 890 1479 1600 1254 2237 2365 1897 2288 2682 1977 2070 3577 3904 4404 4702 4612 4628 4254 4454 4320 5120 5328 4771 4148 3413 3587 4135 4944 4296 4062 4176 4596 4192 3960 3927 3656 3312 2880 3188 2836 2160 2179 2063 1776 1287 868 612 488
2710 2676 2334 2518 2812 3130 3532 3526 3532 3936 3896 3711 3473 3457 3321 3219 3406 3110 3208 3534 3080 2099 1690 2793 3160 3949 2925 2368 2466 2128 2209 2186 2011 2060 2903 1179 1275 900 1152 1346 1376 1879 2820 2252 1913 1710 2383 1970 3170 3595 3697 3593 3958 3830 3953 3981 4567 4621 4981 4400 3592 3239 3424 3847 4313 4071 3926 4167 4631 4271 4200 3936 3620 3245 2985 3066 2638 2294 2092 1858 1416 1155 1018 607 327
2557 2717 2719 2923 3128 3467 3824 3745 3507 3807 3918 3956 3569 3013 2825 3108 3350 3470 3314 4019 3767 3092 2513 1717 2825 3038 2493 2318 2610 2606 2025 2277 2202 2600 1692 2058 1742 1270 1257 1038 965 1097 1189 1118 1114 1262 1845 2159 1919 1663 2365 3231 3168 3286 3451 3376 3012 3250 3261 3666 2861 3376 3852 4109 3731 3018 3755 4116 4655 4361 4031 4046 3732 3543 3212 3032 2772 2335 1818 1344 1166 1047 1124 720 493
2868 3284 3220 3271 3541 3797 4188 3865 3768 3735 3950 3936 3357 2909 3104 3553 3955 4104 4383 4354 3613 3025 2545 2155 2100 2353 2876 2411 2385 2771 2704 2518 2064 1790 2186 2129 1571 1481 1276 1375 1066 842 914 816 821 984 1273 2589 1984 2066 2452 2814 3145 3092 2960 3215 3872 4039 3459 2983 2958 3538 4080 4226 3444 2689 3224 3934 4499 4299 4033 3935 4007 3602 3213 2858 2717 2195 2026 1843 1271 943 1017 908 668
3324 3242 3595 3613 3742 3873 4119 3972 3654 3712 3883 3692 3288 3050 3200 3472 4311 4395 4124 4137 3696 3370 3732 3596 2449 2191 2610 2724 2793 2311 2106 2191 2719 2355 2172 1913 1165 1339 1545 1653 1382 1276 1467 1445 1213 1315 1356 1550 2096 1790 2175 3032 3181 3111 2788 3309 3754 4242 3444 2620 2881 3601 4141 3950 3228 2856 3276 3992 3949 4297 3960 3829 3859 3720 3480 2771 2526 2236 2224 2057 1922 1199 916 1109 1226
3295 3489 3742 3760 3799 3928 3652 3489 3527 3401 3639 3362 3325 3488 3601 3828 3936 3773 3990 3853 4258 3787 3176 3772 3258 3088 2881 3373 3517 3075 2538 2309 2071 2231 2301 2340 1663 1348 1294 1393 1446 1814 1994 1608 1712 1656 1716 1728 1762 1544 1839 2260 2552 3106 3283 3687 4358 3057 2781 2437 2973 3278 3463 3358 2969 2906 2893 2995 3544 3889 3885 3399 3614 3486 3242 2853 2662 2312 2249 2258 2058 1928 1520 1134 1257
2974 3252 3559 3331 3363 3511 3108 3021 3150 3516 3516 3479 3357 3057 2964 3133 3284 4168 4266 3971 3796 3938 3693 3795 3579 3836 3203 3790 3288 2033 2797 2370 2576 2940 2461 2224 2189 1369 1177 1367 1364 1605 1982 2340 2520 1504 1755 1936 1572 1444 2341 2154 2461 2908 3564 3933 3219 2565 2134 2310 2824 3183 3154 3153 2860 2665 2814 2876 2786 3453 3691 3601 3138 3046 2982 2840 2811 2549 2276 2299 2258 2079 1951 1819 1606
3048 2940 3028 2951 3553 3588 3361 3182 3339 3426 3463 3378 3216 3146 3158 3238 3568 4080 3913 4076 4152 3927 3269 3304 2921 3434 3151 2736 2778 2483 2724 2623 2254 2971 3310 2906 2430 1930 1756 2147 2118 1498 1878 2778 2046 1721 1904 2018 2071 2035 2182 2554 3231 3280 4045 4120 4063 2321 3336 3125 2769 2678 2717 2710 2604 2391 2577 2774 2777 2751 2860 3047 3043 2774 2638 2716 2799 2712 2496 2281 2271 2224 2086 1939 1856
3014 2913 2931 3080 3372 3644 3605 3643 3814 3805 3776 3638 3598 3834 3732 3360 3756 3572 3684 3832 3767 3684 3451 3119 3027 2913 2696 2987 2763 2545 2646 2746 2597 2384 2894 2852 2730 2428 1768 2000 1975 1663 1905 2160 2106 1985 2170 2622 3050 3136 3474 3793 3596 4580 4146 3824 3710 3266 2670 4021 3404 2649 2458 2539 2524 2328 2449 2650 2750 2756 2736 2638 2709 2803 2691 2587 2716 2750 2626 2400 2234 2209 2182 2067 1895
3144 3326 3060 2890 3081 3320 3673 3675 4034 4031 4203 4168 3976 3959 3950 3811 3718 3644 3487 3759 3741 3733 3560 3270 3444 3446 3204 2961 2780 2690 2655 2581 2593 2702 2328 2246 2230 1881 2543 2653 1730 1622 2470 2537 2967 1844 2167 2626 3074 3926 3777 3780 3925 4579 4796 3652 3386 3626 3053 3798 4398 3953 3103 2590 2396 2294 2476 2616 2726 2774 2768 2756 2742 2851 2742 2558 2571 2667 2652 2510 2292 2162 2153 2097 2002
3158 3401 3335 3372 3362 3675 3797 3847 4025 4126 4184 4105 3739 3872 4091 3864 3663 3566 3599 3748 3720 3532 3361 3143 2979 3116 3274 3288 2877 2729 2787 2984 2619 2580 2520 2419 2314 2194 2662 2592 1948 1644 1708 2499 2492 2390 1864 2553 2314 2867 3383 4192 3613 4540 4611 3656 3634 3074 3288 5060 4461 4232 3288 2557 2472 2482 2517 2578 2649 2668 2704 2692 2650 2796 2766 2654 2486 2513 2578 2538 2377 2181 2145 2075 2043
3442 3282 3383 3274 3356 3582 3797 3676 3973 3878 3968 3917 3908 3731 4009 3666 3737 3522 3487 3413 3740 3737 3540 3133 2900 3078 3042 3380 3366 2656 2723 2620 2720 2720 2802 2999 2959 2810 2752 2935 2742 2207 2317 2033 1980 2076 2063 2161 2460 2680 3490 3578 3756 3615 3729 3861 3209 3173 4362 4238 4842 4958 3827 2541 2415 2452 2478 2510 2530 2548 2545 2639 2763 2779 2770 2711 2543 2426 2443 2488 2381 2237 2119 2085 2057
3392 3309 3276 3541 3436 3419 3414 3324 3899 3994 3886 3937 3659 3877 4114 3737 3395 3632 3480 3398 3857 3795 3587 3009 3107 2686 2826 3020 3082 3048 2958 3310 2878 2811 3788 4393 3607 3152 2724 2712 3034 2954 2566 2425 2877 1999 2261 1921 1834 2919 3354 3706 4105 3627 3635 3612 3235 3022 3217 3746 3939 4479 3743 2429 2365 2410 2434 2456 2467 2485 2459 2688 2823 2783 2704 2642 2594 2452 2370 2377 2350 2234 2094 2023 2019
3020 2742 3188 3461 3668 3732 3626 3674 3681 3700 3591 3502 3688 3755 4120 3819 3625 3714 3410 3634 3667 3780 3636 3188 3146 3226 3073 2975 2998 2903 3162 2908 2636 2575 3534 4320 3354 2940 2996 3257 3104 3030 3012 2725 2834 2497 2091 2182 2137 2252 3043 3424 2827 2966 2779 3126 3398 3287 3259 3621 3277 3597 2918 2404 2632 2371 2326 2285 2325 2312 2335 2412 2644 2680 2575 2487 2455 2439 2370 2311 2323 2256 2129 2032 1951
3373 3440 3415 3111 3392 3596 3946 3638 3830 3881 3886 3589 4005 3943 4014 3814 3685 3501 3689 3838 3583 3521 3687 3401 3120 3139 3193 3143 3382 3365 3359 3076 3066 2579 3059 3624 3419 3323 3515 3576 3220 3068 3320 3288 2789 3138 2306 2575 2429 2373 2645 2975 2866 2695 2607 2778 3072 2932 3375 3607 3799 3546 2470 4450 3079 2484 2245 2129 2018 2036 2080 2226 2529 2646 2564 2422 2335 2300 2295 2290 2293 2271 2189 2040 1949
2848 3253 3177 2993 3110 2920 2975 2896 2992 3193 3499 3435 3429 3755 3958 3662 3198 2981 3187 3772 3521 3335 3051 3075 2926 3223 3291 3172 3334 3470 3518 3506 3260 3110 3250 3296 3404 3368 3433 3729 3979 3625 3607 3524 3328 3109 3396 2713 2529 2446 2428 2785 3264 3391 2785 2706 2249 2859 4029 4200 4662 4052 3830 2090 2731 2909 2407 1956 1722 1658 1744 1880 2124 2404 2540 2461 2336 2234 2219 2222 2229 2240 2190 2098 1961
2786 2960 3093 3222 3310 3098 2691 2987 2755 3216 3812 3640 3664 3854 4003 4079 4045 3859 3585 3768 3490 3166 3315 3264 3036 3128 3375 3336 3336 3431 3691 3440 3283 3092 2973 3063 3275 3385 3638 3753 3398 3707 3508 3571 3321 3279 3590 3440 2769 2368 2320 3022 2550 3269 3085 2414 2285 2624 3232 3150 3950 3180 2432 2273 2051 2654 2439 1629 1362 1341 1410 1529 1649 1855 2101 2268 2274 2220 2193 2194 2247 2245 2180 2072 1973
2887 2784 3112 2902 3120 3091 2853 3073 3298 3237 3843 4194 3680 3621 3828 3920 3854 3308 3529 3909 3764 3470 3393 3492 3390 3171 3160 3290 3243 3212 3643 3390 3056 2741 2682 2783 2720 2764 3164 3103 3056 3339 3795 3425 3443 3318 3300 3287 3402 3080 2719 3183 2709 3435 3030 3012 2590 3030 2862 2848 2647 2601 2708 2112 1736 1439 1941 1423 1105 1052 1090 1141 1202 1313 1491 1710 1874 1980 2016 2015 2055 2163 2225 2111 1963
2765 2715 2917 2678 3282 3441 3048 3263 3657 3487 3973 3706 3606 3778 3841 3952 3911 3386 3021 3460 3574 3378 3308 3535 3181 3288 3291 3291 2866 2734 2673 2785 3024 2609 2248 2450 2634 2746 2844 2973 3125 2996 3491 3771 3460 3119 3017 3058 3341 2588 2465 3052 2974 2539 2721 2781 3272 3574 3796 2996 2039 1744 2168 2567 1935 812 1468 1219 942 779 809 796 788 880 1064 1213 1339 1472 1566 1664 1741 1939 2132 2148 2007
2297 2714 2724 2742 3256 3664 3324 3481 3703 3538 3698 3541 3594 3697 4016 4030 3954 4052 3867 3770 3503 3405 3321 3198 3035 3264 3210 3278 2984 2602 2695 3090 3316 3254 3016 2720 2642 2898 2977 3169 3717 3397 3442 3688 3814 3370 3124 3098 3333 3231 2657 2777 2802 2773 2936 3056 3035 2930 2609 2552 2691 2468 2162 1582 1461 1188 956 878 624 548 557 547 578 760 907 913 903 942 1028 1205 1409 1580 1788 1946 1970
2084 2341 2830 2941 3161 3331 2866 3050 3306 3475 3436 3547 3771 3447 3624 3717 3972 3703 3694 3879 3751 3699 3590 3662 3538 3516 3492 3256 2981 2971 3185 3195 3106 2970 2708 2938 2889 2635 2560 2790 3192 3118 3170 3279 3478 3547 3388 3325 3082 3521 3682 3112 3112 3179 3108 2669 2468 2681 3417 3840 3210 2571 2745 1819 1118 878 1118 898 771 718 678 669 916 1037 863 709 600 546 632 803 1010 1103 1148 1304 1552
2182 1994 2385 2544 2594 3025 2933 2883 2927 3189 3452 3611 3716 3652 3338 3453 3748 3706 3684 3909 3700 3769 3711 3570 3701 3652 3357 3398 3351 3170 3100 3045 2718 2709 3152 3218 3149 2826 2745 2777 2855 2939 3244 3167 3545 3549 3481 3302 3277 3038 3081 2938 2815 2998 3254 2695 2341 2298 2494 2555 2932 3535 2988 2169 1572 1076 865 1019 1052 801 628 1007 962 898 952 786 546 478 521 631 755 852 834 776 877
2026 1841 1865 2169 2421 2509 2870 2789 2653 2924 3251 3092 3594 3775 3591 3626 3753 3774 3408 3634 3694 3688 3652 3456 3164 3140 3248 3198 3369 3360 3236 3266 2988 2823 2843 3134 3103 2924 3175 3253 2893 2902 2596 2507 2889 2994 2915 2706 2544 2669 2939 2867 3109 2872 3010 3528 2987 2760 2575 2339 2354 2296 3584 3470 2952 2133 1308 1214 1190 876 702 536 558 711 1136 559 514 506 528 601 675 686 672 592 518
1874 1800 1706 1760 2089 2062 2278 2393 2565 2701 2974 2939 3337 3602 3467 3323 3366 3521 3616 3464 3229 3350 3426 3484 3233 2836 2950 2969 2684 2769 3114 3382 3362 3142 3223 2934 3074 3028 2998 3455 3546 3429 2900 2540 2739 2710 2687 2342 2341 2318 2444 2842 3136 3027 3066 3484 3510 3661 3434 2378 2152 2380 2571 3072 3149 2853 2797 2511 1616 600 806 1094 1282 1562 1435 1552 1592 1247 956 778 702 553 0 0 0
1556 1608 1610 1519 1501 1604 1614 1876 2002 2086 1876 2171 2348 2840 3037 3392 3194 2906 3129 3320 3304 3311 3530 3173 3143 3374 3169 2690 2535 2389 2800 3464 3433 3110 2902 2947 2781 2867 3325 3457 3434 3256 3245 2923 2847 2979 2888 2642 2813 2977 2988 3090 3178 3349 2916 2905 2754 2484 2359 2260 2210 2245 2420 2604 2799 2748 2792 1898 1457 1068 1092 1430 1474 1588 1563 2009 2557 2241 1721 1228 1006 884 612 0 0
1675 1726 1709 1644 1419 1358 1407 1669 1808 1662 1740 1805 2140 1897 2001 2325 2784 2585 2660 3080 3244 3197 3384 3464 3170 3003 2848 2686 2307 2818 3060 3132 3179 2777 2296 2051 2072 2397 2832 3228 3379 3408 3221 3083 3074 2989 2955 2971 2604 2332 2240 2078 1790 1827 2117 2155 2119 2603 2530 2779 2777 2528 2595 2843 2978 3060 2867 1926 1336 1805 1882 1495 1142 1373 1730 1594 1323 1689 1676 1782 1522 1090 725 28 0
1300 1503 1434 1434 1392 1362 1351 1375 1447 1380 1357 1379 1502 1268 1194 1176 1800 2451 2964 3192 3473 3498 3202 3406 3364 2926 2691 2750 2821 2801 3168 3146 3064 2879 2721 2570 2403 2239 2086 2127 2720 3135 2931 2852 2859 2925 2919 2700 2456 2488 2258 2382 2355 2154 2000 1632 1722 1849 2142 2372 2326 2417 2616 2516 2188 2372 3359 2559 2734 2359 2130 2160 2056 1854 1746 1617 1344 1326 1324 1441 1074 714 166 0 0
1432 1219 1138 1271 1420 1245 1164 1126 1137 1124 1184 1014 914 862 834 880 958 1804 2045 2342 2402 2728 2928 2771 2765 2712 2714 2475 2351 2227 2442 2805 2832 3131 3329 2942 2460 2416 2355 2285 2205 2103 2214 2838 2945 2933 3002 2664 2608 2677 2527 2291 2462 2498 1801 1317 1841 2369 2689 2516 2729 2761 2488 2288 2242 2150 2927 2764 1941 1834 1849 1920 2300 2001 1757 1814 1698 1565 1061 800 253 14 0 0 0
1512 1388 1334 1267 1384 1227 1208 1143 1027 795 906 676 707 711 695 639 643 861 1492 1726 1978 2095 2315 2731 2707 2759 2875 2717 2604 2306 2055 2397 2608 2496 2873 3120 2726 1993 1851 1884 1903 1943 1946 1856 1744 2496 2631 2865 2902 2755 2520 2542 2652 2556 2167 2568 2834 2582 2613 2347 2447 2682 2767 2602 2344 1856 2021 2724 1889 1738 1708 1662 1630 1751 1646 1626 1723 1688 1340 979 839 52 0 0 0
1491 1318 1139 1156 1331 1641 1478 1515 1528 1364 1143 736 626 592 572 515 455 423 1113 1367 1622 1856 2145 2365 2340 2420 2756 2862 2760 2592 2638 2736 2813 2618 2746 3116 3212 3265 3268 3014 2809 2688 2308 1362 1117 1135 1299 2110 2503 2706 2939 3322 3176 3066 3104 3198 3011 2612 2426 2334 2373 2172 2206 2340 2509 2480 2367 1869 1694 1409 1490 1497 1308 1582 1564 1497 1462 1724 2058 1720 902 642 418 0 0
1366 1347 1234 1090 1064 1392 1234 1225 1202 1155 960 839 785 732 713 655 546 472 681 1047 1207 1533 1906 2252 2619 2506 2481 2658 2696 2555 2563 2843 2922 2803 2532 2524 2656 2551 2478 2384 2281 2425 2547 2457 2323 2257 2099 1711 1934 2319 2432 2424 2620 2951 3116 3218 2996 2842 2705 2480 2247 2190 2150 2064 1973 2117 2216 2166 1973 1575 1460 1354 1267 1339 1587 1511 1379 1460 1532 1425 1252 872 745 388 0
1228 1219 1285 1297 1462 1666 1717 1648 1478 1455 1273 983 984 990 984 958 881 809 793 1125 1258 1323 1598 1957 2146 2552 2663 2562 2684 2701 2722 2743 2487 1815 1598 1892 1949 2128 2254 2366 2349 2342 2292 2058 1766 1462 1551 1599 1796 1875 1834 1610 1272 2074 2339 1661 1694 2018 2596 2508 2318 2244 2178 2098 2105 1800 1686 1561 1780 1550 1591 1600 1598 1399 1572 1620 1536 1641 1661 1760 1437 1048 922 730 0
1474 1793 1641 1604 1731 1694 1632 1733 1642 1690 1905 1776 1006 976 1007 1028 1025 1002 1000 1194 1432 1501 1518 1757 2041 2176 2144 2231 2504 2228 2054 2327 2063 1480 1113 952 1645 1787 2074 2167 2121 2099 1995 1964 1631 1233 995 823 771 792 823 860 878 851 801 730 121 755 1165 1446 1627 1837 2170 2196 1881 1467 1621 1530 1457 1406 1132 1459 1604 1598 1659 1758 1666 1526 1581 1624 1803 1235 1001 1055 1104
1079 1136 1215 1220 1226 1272 1406 1484 1704 1628 1888 1988 1333 1209 1100 920 951 1122 1430 1483 1506 1580 1553 1705 1704 1706 1755 1490 1501 1547 1703 2124 1745 1326 1012 898 1510 1790 1929 1946 1993 1937 2016 1926 1792 1545 1190 1036 946 929 930 939 949 936 911 870 815 586 494 1005 1373 1629 1952 2113 1693 1454 1566 1773 1938 1280 1582 1596 1620 1656 1624 1761 1544 1712 1948 2083 1937 1771 1165 1174 1208
1028 1110 1192 1241 1214 1273 1277 1365 1394 1525 1655 1576 1344 1240 1257 1219 1157 1168 1233 1368 1392 1438 1393 1396 1302 1207 1238 1066 897 929 1071 1132 868 874 880 848 1094 1443 1739 1791 1734 1929 2002 2007 1880 1811 1873 1775 2095 1548 1500 1454 1174 1172 1107 992 860 754 694 796 1172 1432 1587 1569 1496 1683 1715 1687 1882 1982 1624 1712 1321 1508 1675 1522 1618 1675 1803 1991 1933 1909 1943 1878 1828
Wind_Speed
11 12 12 12 12 11 11 11 11 12 11 11 11 11 12 13 14 16 17 18 19 18 19 19 20 19 20 20 19 18 17 15 14 13 13 13 12 11 14 17 19 20 20 21 23 24 25 26 26 27 28 28 28 28 27 25 25 24 25 26 26 25 25 25 25 26 25 26 26 27 28 28 28 29 30 30 31 33 34 35 35 33 33 34 34
10 11 12 11 12 12 12 12 12 13 12 11 13 14 14 15 16 18 19 20 21 19 20 20 20 20 20 20 19 17 15 14 13 13 12 11 11 12 14 18 18 19 20 21 23 25 26 27 26 27 27 27 28 27 25 25 24 24 24 25 25 24 24 25 26 26 25 26 26 27 27 27 28 28 29 31 32 34 36 37 36 34 33 34 34
11 12 12 12 13 13 12 12 12 13 14 13 15 16 17 18 18 20 20 21 21 20 21 20 19 20 19 19 17 16 14 13 12 11 11 9 10 12 12 16 18 19 20 21 23 25 26 27 27 27 27 27 27 26 25 24 24 24 24 24 24 24 24 25 25 25 25 25 25 26 27 27 27 28 29 31 32 34 36 37 37 34 33 33 34
12 13 13 13 13 13 13 13 13 15 16 16 17 18 18 18 19 20 21 22 21 20 20 19 18 18 18 18 17 16 13 12 12 9 9 8 10 11 13 13 15 18 20 21 23 24 25 26 26 26 26 27 27 26 25 25 24 24 24 24 24 24 25 25 25 24 24 24 25 26 26 27 28 29 30 31 32 33 36 38 38 36 35 34 34
13 13 13 14 13 14 13 14 15 17 18 19 19 19 19 19 19 20 21 21 21 20 20 19 18 17 17 15 15 14 13 12 11 10 9 8 9 10 12 13 14 15 18 21 22 24 25 25 26 25 25 25 26 25 25 25 25 25 25 25 25 26 26 25 24 24 23 23 24 24 25 26 27 29 29 30 32 33 35 37 38 38 36 35 34
13 14 14 14 14 14 15 16 17 18 19 19 19 19 19 20 20 20 19 20 20 20 20 18 17 16 15 14 14 12 12 11 10 9 9 9 8 10 11 12 12 14 14 17 21 23 24 25 25 24 24 25 25 25 25 25 25 25 26 26 26 26 26 25 24 23 23 24 23 24 24 25 26 26 27 29 30 32 32 33 35 36 35 35 34
14 14 14 15 14 15 16 17 18 19 19 19 20 19 19 19 19 19 19 19 20 19 19 18 17 16 15 14 13 11 11 11 9 10 9 9 9 10 11 12 12 13 14 15 16 21 24 24 24 23 23 24 24 25 25 25 25 25 26 26 26 26 25 24 23 23 23 23 23 23 23 24 23 23 25 28 28 28 28 29 32 33 33 33 32
14 15 15 15 16 16 17 19 19 19 19 19 19 18 18 18 18 19 18 19 19 19 18 17 17 15 13 12 11 11 11 10 10 10 9 9 9 10 10 11 12 13 13 14 15 16 19 21 22 22 22 23 24 24 24 24 24 25 25 25 25 25 24 24 23 23 23 23 23 23 22 22 21 23 24 24 24 25 25 25 27 27 28 29 29
14 15 16 16 16 17 17 18 19 19 19 19 19 18 18 17 17 17 18 18 19 19 18 17 16 15 12 11 11 10 11 10 10 9 8 10 10 11 11 11 12 12 13 14 14 15 15 18 20 20 20 21 22 22 23 23 23 24 24 24 25 25 24 23 23 22 22 23 22 21 21 20 20 20 20 19 20 21 22 22 22 24 25 26 26
13 14 15 16 16 16 16 17 18 18 19 19 18 17 17 17 17 17 17 18 17 18 17 16 15 13 12 11 10 10 10 10 9 9 9 9 9 11 11 11 11 12 13 14 15 14 14 13 16 18 20 20 19 20 20 20 21 21 22 23 23 24 24 22 21 20 21 20 18 18 17 16 15 16 17 18 17 18 19 21 21 21 23 24 24
12 12 13 14 14 15 16 16 17 17 17 17 16 17 17 17 17 16 16 16 16 16 17 16 14 13 11 11 10 11 11 10 9 9 8 9 9 9 10 10 10 11 12 13 14 13 13 13 12 12 12 14 17 18 18 18 18 19 20 20 21 21 21 20 18 18 16 14 12 12 12 12 13 14 15 15 16 17 19 20 20 20 22 23 24
10 10 11 12 12 13 14 15 15 16 16 16 16 16 17 16 16 16 15 13 14 15 15 14 13 13 12 11 10 11 11 11 10 9 8 9 9 9 10 8 9 10 10 12 12 13 12 12 11 11 12 12 13 15 16 16 17 18 17 17 17 18 18 17 16 13 10 8 8 9 10 10 11 12 14 15 16 18 19 20 20 20 20 22 22
8 9 9 10 11 11 11 12 13 13 14 14 14 14 14 15 15 15 14 13 13 13 12 14 12 10 11 10 9 9 11 11 11 10 9 9 8 9 9 9 9 9 9 10 11 11 11 10 10 10 10 10 11 11 12 13 14 15 15 15 15 15 16 14 12 10 7 6 8 10 11 12 11 12 13 15 17 17 18 19 20 19 19 20 21
7 8 8 9 9 9 9 10 11 11 12 13 13 12 12 13 13 11 12 13 11 13 13 13 10 11 11 8 7 7 8 9 9 8 9 8 9 8 8 9 9 8 7 8 9 9 10 9 10 9 9 10 10 10 9 10 9 10 13 15 14 14 13 12 10 8 6 7 9 10 11 12 11 12 13 14 16 16 17 18 19 18 18 19 19
6 7 8 8 9 9 9 9 10 10 11 11 12 11 11 12 12 11 10 9 9 10 12 14 11 11 9 9 8 8 6 7 8 8 8 8 8 8 7 7 7 7 7 7 7 8 9 8 8 8 9 9 9 9 10 10 9 12 14 13 13 13 12 11 10 7 7 8 10 11 12 11 11 12 13 13 15 16 16 17 18 17 17 18 18
5 6 7 7 8 8 8 9 9 9 10 11 11 10 10 10 11 11 10 9 8 9 10 11 12 12 9 10 9 10 7 9 11 9 9 7 7 7 6 7 6 5 6 6 6 7 8 8 8 7 7 8 9 9 9 9 10 12 12 11 11 10 11 10 9 8 8 9 10 11 11 11 12 13 13 13 14 15 16 17 17 17 17 17 16
5 5 6 5 7 7 8 8 8 8 9 9 9 9 10 10 10 10 10 9 8 8 8 10 10 11 10 8 7 7 10 9 11 7 10 7 7 7 6 8 6 5 6 6 6 6 8 7 6 6 6 7 7 8 8 8 8 7 9 8 7 9 9 9 9 8 8 9 11 12 12 12 13 14 13 14 15 15 16 16 17 17 17 16 15
6 6 5 5 5 6 7 7 6 7 7 9 8 8 8 9 9 10 8 8 8 8 7 8 9 10 9 9 10 11 11 12 11 8 10 9 7 6 6 6 6 5 5 5 5 5 5 7 5 6 5 6 6 6 7 7 6 6 6 7 9 8 8 9 9 9 8 9 11 13 14 14 14 14 14 15 16 16 15 16 17 17 17 16 14
6 6 6 6 6 6 6 7 6 6 6 6 6 7 7 8 9 9 9 8 7 7 7 7 7 8 9 9 9 10 10 11 11 11 9 8 9 7 6 6 6 5 4 5 5 5 4 5 6 5 5 5 5 5 5 6 6 6 8 9 8 7 8 9 9 10 10 10 12 14 14 14 15 15 15 16 16 16 16 16 16 17 16 15 14
7 6 6 6 6 6 6 6 6 5 5 5 6 6 7 7 8 8 8 7 7 7 7 8 8 8 10 10 10 9 9 10 11 11 10 11 10 8 7 8 6 6 6 6 6 6 5 4 4 3 3 3 3 4 5 5 4 5 4 5 5 7 9 9 10 11 12 12 12 14 14 13 14 15 15 15 16 16 16 16 16 17 16 15 14
6 5 5 5 5 5 5 5 4 4 3 3 4 5 5 6 6 6 6 5 6 7 7 7 9 9 10 10 11 10 9 10 9 9 11 12 11 11 11 10 7 8 9 8 8 7 6 5 4 4 2 2 2 3 4 4 3 3 5 3 5 7 9 9 10 11 13 13 13 14 14 13 14 14 14 15 16 16 16 16 16 16 16 16 15
6 5 5 4 4 4 3 3 3 2 3 4 5 5 5 6 6 6 6 6 6 7 7 7 9 9 10 11 11 10 10 10 10 11 9 9 11 12 12 13 11 11 10 11 12 10 9 7 6 3 3 3 2 2 4 4 3 3 2 3 6 8 9 9 10 11 12 13 13 14 14 13 14 14 14 14 15 16 16 16 16 16 16 16 16
6 6 6 5 4 4 4 3 3 3 3 4 5 6 6 6 7 6 5 6 6 6 6 7 8 9 9 11 11 11 11 11 11 11 11 9 10 12 12 13 12 12 12 12 10 10 8 7 7 6 5 4 3 2 4 4 5 3 5 8 9 9 9 9 11 13 14 14 14 14 14 14 13 14 14 14 15 16 16 16 16 16 16 16 16
6 7 6 6 6 6 5 5 5 6 6 6 6 6 7 7 7 6 6 6 6 7 8 8 8 8 9 9 9 10 9 10 10 9 9 10 9 10 11 11 9 10 10 10 8 9 8 8 7 6 5 3 2 2 4 5 3 4 6 5 8 9 9 10 12 14 15 15 14 13 13 14 14 14 14 15 15 16 17 16 16 16 16 16 16
6 6 7 6 7 7 6 7 7 7 7 7 6 6 7 7 7 6 6 6 6 7 8 8 9 9 9 9 9 9 9 9 8 9 10 8 7 8 9 9 8 8 9 9 8 6 6 6 6 5 4 2 1 2 3 3 1 4 5 7 10 9 9 10 12 14 14 14 14 14 14 14 16 14 15 16 17 17 18 18 17 17 17 16 15
5 6 7 7 7 7 7 6 6 6 6 6 7 6 6 6 6 6 6 7 7 7 8 9 9 8 8 8 8 8 8 8 8 7 7 7 7 8 8 6 5 6 5 5 5 4 4 4 3 3 3 3 2 1 1 1 3 7 5 7 7 7 7 9 11 13 13 14 14 14 15 15 15 15 13 14 16 16 18 20 20 18 17 17 17
5 6 6 6 6 6 6 5 5 5 5 5 6 6 6 6 6 7 7 7 7 8 8 8 8 7 7 7 8 8 9 8 8 8 8 7 7 7 7 7 6 5 4 3 3 3 4 2 1 3 4 3 2 1 0 1 4 5 4 6 4 4 8 9 11 13 14 15 15 14 15 15 14 15 14 14 16 17 18 20 22 21 19 18 18
5 5 5 5 5 5 5 4 5 4 4 3 4 5 5 6 6 5 5 7 7 6 8 8 8 8 8 8 8 8 8 8 9 8 8 8 7 6 5 5 6 6 5 3 4 3 3 4 2 1 3 4 3 0 1 3 4 2 8 3 4 6 7 9 11 13 14 14 14 14 15 15 15 16 17 17 18 19 20 21 22 24 22 20 20
5 5 5 5 5 5 5 5 5 4 4 3 3 4 5 5 5 5 5 6 6 7 8 8 9 9 8 7 8 8 8 9 8 8 9 8 7 6 5 5 4 4 5 4 3 4 2 4 4 2 3 3 1 0 2 3 5 3 2 4 4 7 6 8 11 13 14 13 13 13 14 14 15 16 17 19 19 21 22 22 22 24 25 23 21
3 5 5 5 6 6 6 6 6 5 5 5 4 4 4 4 5 4 6 6 6 7 7 8 8 8 9 8 8 8 8 7 7 8 9 8 8 7 6 5 4 3 3 1 2 1 1 1 2 1 1 1 1 3 3 3 7 5 3 4 5 5 6 12 13 13 12 11 11 12 13 13 14 15 16 18 19 19 19 20 21 23 26 26 24
5 5 5 5 6 6 6 6 7 6 6 5 5 5 4 4 5 4 5 5 6 6 6 7 7 8 9 9 8 8 8 8 8 7 8 7 7 7 7 7 6 5 4 4 2 4 3 1 1 1 2 2 2 2 3 4 7 5 4 5 6 7 12 14 14 12 10 9 10 11 11 12 14 15 16 17 18 18 18 19 20 21 24 26 25
6 6 5 5 6 5 6 6 7 7 7 6 5 5 5 4 4 4 6 6 5 5 6 6 7 8 8 8 8 8 8 7 6 6 6 6 6 5 6 6 6 6 7 6 5 3 5 3 2 3 3 5 5 5 4 4 6 13 4 7 8 13 13 10 13 11 8 8 8 9 10 11 13 14 16 17 17 18 18 19 20 20 21 23 24
9 8 7 6 6 6 6 7 7 8 7 7 7 7 6 5 4 3 5 6 5 4 5 5 5 6 7 7 7 7 7 6 6 5 5 4 4 4 5 5 5 7 7 6 5 4 4 5 4 3 3 4 5 5 4 3 2 2 4 6 8 10 10 10 8 10 9 6 6 7 8 9 11 13 14 16 17 17 18 18 19 20 20 21 23
11 10 9 8 8 7 6 7 8 8 8 8 7 7 6 6 4 5 5 6 5 4 4 4 5 6 6 6 5 5 4 3 3 2 2 2 2 3 5 5 5 5 8 6 5 4 3 4 4 5 4 6 4 4 2 1 1 2 3 6 9 9 10 9 8 7 11 6 5 6 7 8 9 11 13 14 16 16 16 17 18 20 20 19 21
14 13 11 10 10 9 9 9 9 9 10 9 9 8 8 6 5 5 5 6 5 4 4 3 4 5 5 5 5 5 5 3 3 2 2 1 1 1 2 3 4 4 6 7 5 4 3 3 2 2 3 3 2 1 0 2 3 5 6 7 7 8 9 9 8 6 11 8 7 8 8 8 8 10 11 13 14 15 15 17 18 19 19 19 19
17 16 14 13 13 12 11 11 11 10 10 10 10 9 8 8 7 6 6 6 6 5 4 4 4 4 4 4 4 4 4 3 3 3 3 3 2 1 1 2 2 2 2 4 5 3 2 2 1 0 2 2 1 1 2 3 4 6 8 9 9 9 8 8 8 7 10 9 9 9 10 10 10 10 11 12 13 13 14 16 17 18 18 18 18
18 18 18 17 16 15 14 13 12 12 11 11 10 9 9 9 9 8 8 8 7 6 5 5 4 4 3 3 3 3 2 2 2 2 3 3 3 2 1 1 1 1 1 2 2 3 2 1 1 1 3 3 4 3 5 6 7 8 10 10 10 9 9 8 7 7 11 16 15 13 11 12 12 12 12 13 13 14 14 15 16 17 17 17 17
20 19 19 18 18 17 16 15 14 14 13 12 12 11 10 10 10 10 10 10 9 8 7 6 5 5 4 4 5 4 3 1 1 2 3 3 3 2 2 2 2 2 2 1 3 3 3 2 2 2 4 5 6 7 8 11 10 9 9 10 11 11 9 7 6 6 6 7 6 8 12 13 15 14 14 14 14 15 15 15 15 15 16 17 17
21 19 19 19 21 19 18 16 16 16 14 14 14 13 12 12 12 11 11 10 10 10 8 6 6 5 5 5 6 6 5 4 3 3 3 3 3 1 1 1 1 2 2 2 3 4 4 4 5 5 6 8 10 9 12 14 13 14 12 10 9 10 10 8 7 6 6 5 7 16 15 11 11 12 11 13 15 17 16 15 15 16 16 17 17
21 20 19 20 21 21 20 19 18 17 16 15 15 15 15 14 14 12 12 11 10 10 9 8 7 7 6 6 6 8 8 8 7 6 6 6 6 4 4 5 5 4 3 3 4 4 5 6 6 7 8 10 11 11 12 14 13 14 14 11 9 8 7 9 10 9 7 8 9 8 15 18 17 19 19 19 21 19 18 17 18 17 nan nan nan
24 22 21 21 21 21 21 20 19 18 17 17 18 18 17 16 15 13 12 11 10 10 9 9 9 8 8 7 7 7 10 11 10 9 8 9 10 9 8 8 7 7 7 6 6 7 7 8 8 10 10 12 12 12 11 11 10 8 9 9 7 8 8 9 11 12 11 12 12 12 11 9 10 10 8 8 11 15 16 21 16 18 18 nan nan
27 27 26 24 23 22 22 21 20 19 19 19 21 18 17 17 16 16 15 13 12 10 10 9 9 9 8 8 8 9 10 11 11 10 10 10 11 10 11 11 10 10 9 9 9 9 9 9 9 9 9 11 11 10 9 8 8 9 8 8 6 6 6 7 11 15 15 12 12 15 14 11 10 11 11 9 11 14 12 13 11 9 10 nan nan
31 31 28 26 24 24 23 22 21 20 19 20 22 19 17 15 15 16 16 15 13 11 10 10 10 10 10 10 10 10 12 11 11 10 10 11 11 11 11 10 10 10 9 9 9 9 9 9 9 10 9 9 10 9 8 6 6 6 6 7 7 7 7 8 9 13 18 16 14 14 15 14 14 14 15 13 13 13 12 12 11 13 15 nan nan
33 32 30 30 28 27 26 24 23 22 21 23 23 20 18 16 17 16 16 16 15 13 12 11 11 12 12 12 12 13 13 13 13 13 14 13 12 11 11 11 12 12 12 11 10 10 9 8 8 9 9 9 10 11 9 7 7 7 8 8 8 8 9 9 10 11 17 19 13 12 13 17 19 18 17 18 16 15 13 12 12 nan nan nan nan
32 32 32 32 31 29 28 27 26 25 23 26 23 21 18 17 16 17 17 16 15 14 14 13 13 13 14 15 14 15 14 14 14 13 13 14 15 14 12 11 12 13 14 16 16 14 11 10 10 10 12 11 10 11 12 11 11 10 10 10 10 10 11 10 10 12 15 20 15 11 12 16 18 17 17 18 17 16 14 15 16 nan nan nan nan
32 31 30 30 32 32 31 29 28 27 25 27 25 22 19 17 16 19 17 16 15 15 15 15 15 15 16 16 16 16 15 15 16 15 15 14 14 15 15 16 15 15 18 20 18 18 16 13 11 10 12 14 13 12 13 14 13 12 12 11 11 11 11 10 11 12 15 18 15 11 11 16 19 16 15 16 16 17 18 18 17 16 16 nan nan
31 32 33 33 33 32 30 29 28 27 26 29 26 24 21 19 18 19 17 17 17 16 16 16 16 15 16 17 17 16 16 17 18 19 17 16 15 14 14 13 13 14 14 16 18 19 20 19 17 14 12 13 12 12 14 16 15 15 14 12 13 14 13 11 11 14 16 20 22 19 12 14 18 15 15 15 15 15 17 18 22 19 17 17 nan
33 33 34 34 34 35 34 33 30 29 30 35 29 27 25 24 24 22 20 18 17 17 17 17 17 18 18 17 18 17 17 18 18 23 21 17 15 14 13 13 14 14 15 17 18 17 15 14 15 14 13 13 13 13 15 16 17 18 17 17 19 19 16 13 13 17 18 20 27 24 16 13 17 15 13 14 14 14 17 17 22 24 19 16 nan
37 36 36 37 38 37 36 36 34 33 32 38 34 31 31 32 28 24 23 21 20 19 19 19 19 19 18 18 17 17 17 19 25 31 25 22 17 15 15 14 15 15 15 18 23 22 20 18 15 12 10 10 11 11 12 13 18 20 19 18 18 21 17 15 14 15 17 19 20 22 18 13 17 16 13 13 14 13 14 16 19 26 25 20 19
42 41 39 40 41 41 38 36 37 37 35 40 36 34 33 32 29 27 26 24 23 22 22 22 22 22 21 18 17 17 18 20 33 32 28 24 20 18 17 16 14 15 16 19 20 23 27 22 19 17 16 15 15 14 14 16 17 25 25 21 20 22 19 18 15 14 15 18 18 20 20 16 15 16 13 13 12 15 17 18 19 20 26 24 24
42 44 43 42 42 43 44 42 43 39 37 41 43 43 41 35 32 30 29 28 26 26 25 25 25 25 25 24 22 20 20 22 26 26 27 23 20 19 19 18 16 16 18 19 19 19 20 20 21 22 21 21 21 21 22 21 21 27 27 23 22 23 20 18 17 16 14 17 22 31 20 15 14 15 16 13 9 11 16 17 18 19 20 20 21
Wind_Direction
121 129 132 134 131 124 116 114 111 109 108 114 117 115 117 118 120 122 122 121 120 119 119 118 119 119 122 121 118 117 115 115 113 108 102 98 98 102 104 103 106 110 111 112 111 110 107 105 106 110 112 111 108 105 104 104 103 102 101 99 97 97 98 96 93 91 88 85 82 80 77 74 71 68 65 62 59 58 57 57 59 59 60 58 55
114 122 125 128 127 123 118 115 114 115 115 120 122 122 122 120 121 121 121 118 116 116 116 121 122 124 121 122 120 120 115 111 108 102 97 94 98 103 95 103 101 105 108 110 109 109 111 112 113 114 115 112 107 105 103 101 101 100 99 98 98 97 95 94 92 92 89 86 83 81 78 74 71 68 65 62 58 57 57 58 59 59 59 57 55
116 118 122 124 121 119 119 116 118 121 121 122 123 123 122 121 121 120 118 116 115 117 116 120 123 121 120 118 118 115 112 108 102 92 91 94 100 104 102 95 103 104 105 106 105 107 108 112 115 117 116 114 112 110 107 106 105 105 103 100 98 96 95 92 91 91 89 85 82 80 76 73 70 66 64 61 59 56 56 58 59 58 57 56 54
117 118 122 122 122 122 121 123 125 124 125 128 126 125 123 121 119 117 116 114 114 114 115 118 122 123 119 114 114 110 106 101 96 94 96 97 99 102 106 102 93 103 108 106 104 103 107 109 111 113 114 113 111 108 105 103 103 102 101 99 96 93 90 89 87 87 86 84 80 77 74 71 67 64 61 60 58 57 56 56 57 56 55 55 56
114 120 122 123 123 122 124 128 127 127 128 131 130 125 122 121 120 116 115 113 117 119 116 117 120 121 118 117 112 106 100 92 91 88 88 91 94 102 106 106 106 96 98 104 105 105 106 107 111 114 114 112 108 105 103 100 99 100 98 95 92 89 87 85 83 82 80 79 77 75 71 68 65 62 61 60 58 58 57 57 56 55 54 55 57
109 117 121 122 123 125 127 127 128 130 130 129 127 126 125 124 123 119 120 120 123 123 122 122 123 118 116 117 109 105 97 91 87 87 84 90 102 102 105 106 106 108 107 92 95 100 103 106 108 110 110 109 106 102 99 97 96 96 93 91 88 86 84 82 79 77 75 74 73 71 69 67 64 64 61 60 58 57 57 58 58 57 55 54 55
106 113 118 120 121 123 125 128 130 130 130 130 127 126 126 126 125 124 125 124 125 123 124 128 128 125 120 115 112 104 95 93 89 88 83 91 96 102 106 108 107 107 106 106 92 87 94 100 104 107 107 105 102 99 96 95 95 93 91 90 88 87 84 82 78 75 73 70 69 68 66 63 63 63 59 57 55 56 57 58 58 58 56 52 52
105 111 116 118 121 123 127 128 130 130 132 131 128 131 132 131 130 128 130 131 129 127 126 128 129 130 126 112 106 99 93 93 91 89 94 97 101 104 105 106 106 109 108 107 106 100 90 95 100 104 105 104 101 98 97 96 95 94 93 91 90 89 86 83 79 75 72 69 67 64 63 62 60 56 56 56 53 48 48 50 54 56 55 51 47
106 111 116 118 121 123 125 128 130 133 133 133 133 136 135 136 134 133 132 130 132 132 132 130 129 129 126 119 115 103 102 98 96 95 97 99 103 107 108 108 109 107 107 104 103 104 87 88 97 99 102 102 101 99 98 98 97 97 96 96 94 91 88 85 81 77 72 69 66 64 60 58 55 50 50 47 46 43 46 47 47 48 49 49 46
111 115 120 123 125 127 129 130 132 134 135 136 137 140 141 140 141 137 134 131 134 133 133 134 132 131 130 128 118 107 104 95 93 92 94 100 106 112 115 119 116 116 116 114 109 103 107 90 84 93 94 96 96 97 98 99 100 102 101 101 99 97 94 89 85 81 77 70 67 65 59 59 51 43 40 37 37 37 35 32 37 43 47 47 46
115 119 121 124 127 129 130 132 132 135 137 138 143 148 148 146 146 146 138 137 137 135 136 132 132 132 133 130 120 107 102 97 88 86 93 106 116 116 115 114 118 117 114 110 106 105 103 110 111 111 102 79 92 95 98 102 104 105 105 106 105 103 100 94 87 83 78 76 68 61 53 44 39 34 32 28 27 24 25 29 33 39 43 45 43
122 126 128 130 131 130 132 132 134 136 139 143 149 151 153 151 151 150 150 144 143 138 138 133 132 132 129 119 111 104 97 94 88 85 92 104 110 116 120 121 120 121 117 113 113 112 107 106 105 106 108 96 85 94 99 102 103 104 103 105 105 104 103 98 91 85 76 63 46 31 24 22 21 17 17 19 16 18 23 27 31 36 41 42 42
130 132 136 140 139 139 136 134 137 139 141 147 151 156 152 148 147 144 151 151 148 143 145 139 144 138 128 124 112 102 99 92 93 93 96 107 108 107 116 122 123 123 122 118 115 113 109 101 101 101 102 106 98 80 83 91 92 96 101 102 103 101 100 98 96 84 67 39 13 8 4 4 360 1 5 11 11 16 22 25 27 35 40 41 41
135 139 143 145 148 146 142 140 142 145 145 148 154 153 153 149 147 142 148 153 151 150 154 135 149 152 144 138 136 114 110 104 105 103 104 102 98 97 108 120 128 133 128 121 112 107 102 97 95 99 99 97 98 99 96 89 85 91 100 99 98 96 94 92 86 75 47 18 5 358 356 353 349 353 1 12 11 15 20 23 29 36 41 42 40
136 140 146 145 151 153 150 152 152 155 152 153 158 160 154 155 153 153 151 150 150 150 152 150 158 153 141 134 155 128 117 129 130 129 128 117 103 98 107 116 126 129 128 119 117 113 108 101 97 95 97 95 96 95 93 91 90 100 97 93 90 92 92 84 71 53 35 20 9 5 1 358 355 358 7 17 16 16 19 25 32 41 44 43 40
137 142 148 149 151 151 155 157 161 161 159 160 162 165 160 159 157 161 157 150 154 160 159 159 155 153 163 162 154 137 152 160 143 144 142 141 120 110 103 112 122 123 121 120 128 119 104 94 89 88 90 93 95 93 91 95 96 91 90 90 95 98 92 79 61 44 29 22 14 9 7 5 5 6 12 18 18 17 20 29 37 44 46 42 40
151 149 151 155 153 153 156 161 165 167 166 164 166 171 170 169 169 166 171 165 163 159 162 165 173 165 164 152 148 153 160 156 142 146 148 156 154 125 116 113 126 132 125 136 135 115 112 107 95 88 85 87 88 89 92 94 96 101 103 92 108 113 101 72 56 45 28 17 11 9 7 7 7 8 15 18 16 21 25 35 41 46 47 45 40
159 155 157 164 161 156 159 162 169 173 171 171 178 178 177 171 181 175 181 182 172 166 168 169 175 177 165 162 160 161 151 151 139 154 142 161 163 159 140 132 135 131 128 122 120 122 108 112 97 93 87 91 94 94 98 96 91 94 98 110 118 110 93 68 50 42 28 12 8 9 9 8 9 12 17 20 20 23 30 37 44 47 49 47 42
162 158 160 162 160 161 160 159 172 178 177 176 180 179 190 189 186 189 189 189 178 181 173 175 168 171 176 176 169 158 155 155 162 145 161 166 172 167 171 155 139 130 131 134 130 126 123 118 117 123 114 100 102 105 102 102 101 86 83 86 98 93 81 63 49 36 24 14 11 11 12 13 14 17 20 22 22 25 30 37 43 46 49 50 43
172 173 161 159 157 157 159 160 162 169 171 168 179 191 202 201 197 193 193 189 187 184 183 182 168 177 178 176 185 182 173 166 167 163 155 162 178 175 175 177 156 169 162 155 152 152 143 119 117 118 114 108 107 115 110 104 103 102 97 95 93 83 69 58 49 36 23 18 17 18 18 17 19 21 22 23 23 26 28 34 40 44 48 51 46
185 182 178 167 164 159 160 157 149 146 142 158 179 205 207 210 205 199 189 189 186 189 181 186 169 180 175 181 184 188 188 182 177 168 173 172 183 182 175 176 175 184 178 161 159 154 146 142 153 139 137 149 143 115 105 99 98 89 88 79 83 66 63 56 51 43 27 23 26 27 25 20 20 23 25 22 23 24 28 30 36 41 45 50 48
209 196 195 189 182 180 163 141 130 132 147 178 187 197 204 204 200 195 191 184 187 179 182 183 179 177 180 181 186 189 185 190 184 183 191 183 179 179 184 178 181 185 180 176 170 175 171 164 154 171 198 193 178 112 97 84 73 75 71 80 69 61 57 57 55 49 47 40 33 32 33 25 20 21 20 21 20 22 26 28 30 35 40 47 49
214 217 204 200 201 198 185 182 175 210 198 203 189 182 193 197 202 205 197 186 182 179 180 182 181 177 180 185 186 189 194 193 194 187 187 198 190 188 190 189 184 187 188 179 173 183 187 183 176 187 201 194 181 117 84 83 70 57 81 69 56 49 48 53 57 59 56 52 41 38 35 30 25 20 17 19 18 19 23 25 26 29 34 42 47
221 219 219 216 215 205 197 199 209 212 212 206 197 187 185 193 197 200 201 197 184 175 171 177 174 183 176 185 186 189 196 188 195 193 187 198 200 199 199 186 190 197 193 184 190 197 200 201 194 195 204 203 155 110 84 74 45 23 64 43 43 44 46 55 62 63 60 54 47 40 37 32 27 19 15 17 18 17 18 22 22 24 28 35 43
226 224 224 225 221 211 208 210 211 211 206 206 205 197 194 190 197 194 201 196 189 177 175 172 177 175 182 190 185 188 194 197 194 192 199 198 205 204 212 204 192 202 200 196 193 201 216 219 215 210 219 199 142 85 85 65 36 319 44 49 33 49 57 63 64 62 60 54 48 41 38 34 23 21 12 13 16 14 16 19 20 20 23 27 37
228 228 223 230 226 219 217 208 205 207 208 206 204 205 203 197 197 195 195 202 193 185 176 176 178 178 179 187 186 194 194 203 207 197 198 194 194 200 202 201 195 205 210 204 190 174 241 234 237 242 230 211 202 122 59 56 5 326 34 54 54 50 67 64 60 59 55 50 45 40 38 37 25 24 21 11 15 19 15 15 18 19 21 22 30
230 230 233 232 230 226 222 208 210 209 210 209 206 206 206 203 202 194 195 206 199 192 185 179 178 180 181 186 192 192 204 209 208 208 205 201 195 196 194 190 187 185 203 234 211 200 195 208 228 251 232 207 188 190 242 341 324 333 52 34 62 59 63 54 51 47 45 43 41 43 45 47 43 35 38 27 21 25 23 19 17 16 16 17 23
242 239 246 247 247 241 235 220 216 213 214 214 208 204 208 203 208 205 192 207 202 193 187 185 179 179 181 190 193 197 208 211 215 219 217 214 213 211 207 201 191 175 184 182 190 206 224 184 224 270 201 189 173 161 352 28 336 12 38 39 38 44 19 39 41 39 39 40 40 44 49 53 53 51 48 45 36 32 30 26 18 12 11 11 16
253 257 257 262 259 255 242 231 236 223 224 227 225 226 221 212 208 206 193 206 206 193 191 191 185 183 185 190 193 200 208 220 219 225 230 229 236 234 219 212 219 189 175 171 192 173 193 185 168 250 186 164 154 180 340 342 311 13 37 44 39 36 1 43 36 34 38 40 44 50 55 58 62 59 55 48 42 34 31 26 21 11 9 9 12
253 261 271 280 274 269 252 246 237 235 228 228 238 244 244 224 222 209 209 211 211 205 202 195 191 190 186 188 197 197 210 213 222 224 236 240 249 254 249 254 265 232 233 190 180 109 135 138 99 149 256 140 354 346 341 359 323 36 29 37 39 18 30 45 31 30 36 42 49 57 58 59 59 57 53 49 45 37 29 26 23 14 9 6 8
250 262 275 282 282 274 263 255 255 252 249 241 245 247 253 240 248 237 244 234 220 212 212 210 200 199 191 186 196 195 201 204 210 219 235 240 249 257 262 273 286 293 297 304 327 319 343 42 55 39 358 356 353 347 358 360 343 1 32 27 20 13 35 18 18 24 33 45 54 60 58 53 51 48 43 40 39 35 27 22 21 17 12 4 4
247 260 261 273 282 284 272 260 253 254 257 257 257 259 256 248 244 244 258 255 233 218 211 219 209 208 201 194 197 197 202 205 209 218 234 241 247 261 275 285 296 300 304 311 325 344 344 5 2 20 359 337 358 14 5 8 342 352 10 20 10 17 11 1 1 11 28 42 51 55 53 50 47 43 40 37 37 36 30 23 19 17 14 5 360
245 250 255 259 268 274 268 261 254 252 253 253 258 259 262 265 267 265 265 271 256 234 236 230 228 224 215 205 202 201 204 199 209 210 222 247 268 283 295 305 312 310 313 317 325 338 346 329 328 339 314 324 353 357 8 2 359 328 18 7 6 1 358 352 355 357 3 25 38 42 51 53 51 47 43 39 35 32 28 26 20 16 12 4 358
246 246 249 249 254 259 261 262 258 254 252 255 252 255 260 265 268 273 284 292 288 269 251 247 253 251 245 231 222 220 232 216 206 202 227 247 291 315 324 332 333 327 320 325 327 334 7 346 337 321 331 329 358 357 358 359 317 342 7 357 353 352 350 349 352 349 340 7 24 41 52 56 57 52 46 39 31 27 27 27 24 17 13 8 1
245 242 243 240 245 247 245 248 252 249 251 248 248 252 254 259 258 251 258 277 286 281 278 273 266 264 263 258 250 247 255 251 252 245 233 240 269 298 351 341 350 348 327 328 332 349 15 37 353 360 324 322 3 87 120 318 326 339 347 343 340 342 342 347 350 342 329 356 22 43 53 57 56 51 44 35 26 19 20 24 26 22 16 12 5
242 243 240 237 237 237 235 238 242 241 245 244 246 251 258 260 259 260 258 260 260 262 264 263 262 272 269 266 259 252 251 253 249 242 245 247 246 265 350 351 355 20 337 326 335 341 344 54 50 89 243 245 245 230 262 290 316 319 330 334 342 343 338 338 348 348 330 354 26 38 41 45 44 41 32 27 21 16 16 21 26 26 21 18 13
242 243 244 241 238 234 229 229 232 236 238 240 243 241 245 251 256 254 253 255 251 246 243 254 262 270 278 284 272 262 258 230 226 234 232 224 223 213 189 216 225 215 255 282 304 313 314 357 165 242 262 276 284 287 289 290 299 318 327 333 333 337 334 333 341 342 356 8 17 20 24 27 29 23 21 22 19 17 16 21 28 29 26 23 22
245 244 247 247 245 242 235 229 228 229 231 235 239 235 233 239 247 249 252 253 250 245 240 246 263 277 284 294 296 296 292 280 212 222 228 214 220 203 177 185 203 222 229 250 284 288 293 297 285 251 276 269 278 289 299 304 306 310 320 322 331 337 331 323 323 331 330 331 329 342 356 6 358 5 18 19 23 19 17 22 29 32 29 26 26
244 244 248 250 251 248 245 239 234 232 231 232 236 235 233 234 238 241 244 250 252 252 247 245 248 264 278 284 291 296 300 306 304 292 287 286 283 264 268 253 254 273 273 276 284 289 295 291 291 299 293 292 294 293 303 309 315 324 326 320 322 323 330 321 321 322 327 333 346 358 3 5 14 15 11 27 29 24 17 20 27 31 30 26 25
243 242 241 246 249 250 249 245 242 238 235 233 236 237 236 235 236 238 242 245 247 253 253 253 249 249 259 268 275 283 291 294 295 289 290 286 281 274 275 278 275 273 255 251 262 270 276 277 285 283 288 290 295 302 307 314 315 321 325 321 322 326 327 327 327 327 329 334 339 334 348 359 2 4 15 21 23 20 14 11 20 24 nan nan nan
241 242 241 239 239 242 245 246 245 244 239 236 236 239 240 242 242 237 238 240 243 247 252 251 254 255 253 255 265 274 283 292 295 290 281 277 274 271 271 273 273 272 270 265 266 266 271 277 281 291 295 294 296 300 301 305 312 314 317 320 322 325 326 322 317 321 329 334 334 334 337 341 349 346 354 10 7 5 1 0 9 18 20 nan nan
241 242 242 241 239 238 239 243 246 246 246 243 248 252 245 239 241 241 243 243 241 243 246 248 249 252 251 250 251 270 280 289 293 298 305 308 309 297 281 277 277 279 279 276 277 278 278 280 283 283 286 290 292 296 300 307 313 320 319 314 307 290 292 300 307 315 320 326 326 329 335 339 347 346 347 3 5 357 348 347 345 351 0 nan nan
239 241 243 245 245 242 240 238 239 240 241 245 259 263 262 259 247 243 245 246 248 249 249 251 249 247 246 250 246 260 275 281 284 299 301 304 305 311 314 312 302 291 282 284 288 288 289 292 291 296 294 293 297 296 302 304 310 303 299 297 294 285 279 267 271 296 313 312 318 323 328 328 337 341 339 349 358 351 345 344 346 358 6 nan nan
240 238 239 241 243 244 242 239 236 235 234 241 254 257 259 260 259 250 245 246 247 249 251 253 253 252 251 250 250 250 257 264 265 273 289 302 306 307 311 316 322 326 327 318 308 305 309 309 311 309 303 308 307 307 309 311 307 301 299 293 293 288 280 277 277 283 291 297 301 310 317 315 325 333 336 341 346 342 336 344 7 nan nan nan nan
240 239 237 238 240 242 242 242 238 236 233 245 251 250 250 253 258 256 247 247 247 248 250 254 255 258 258 256 257 260 256 271 277 275 276 282 300 317 321 318 319 329 335 339 337 331 323 325 326 325 320 317 321 316 312 316 309 307 298 294 289 285 282 282 286 280 281 287 292 300 301 300 312 330 330 331 336 332 330 339 349 nan nan nan nan
238 238 237 237 237 239 239 239 237 235 234 244 252 251 250 251 254 258 249 250 251 250 251 254 257 260 265 268 269 271 273 276 278 280 280 284 284 292 302 306 309 319 329 334 335 337 333 322 320 319 316 314 318 314 310 306 304 300 292 290 282 277 277 282 277 282 285 291 297 289 290 294 301 315 324 325 329 328 327 331 344 356 3 nan nan
235 234 235 235 235 235 236 236 236 235 235 247 251 251 251 251 251 256 246 250 250 253 256 258 262 265 269 273 276 277 278 279 278 278 276 278 283 289 293 296 300 301 301 302 304 305 308 315 321 325 321 315 314 311 303 299 301 297 295 291 283 279 280 283 290 297 295 302 309 305 301 292 297 313 319 316 319 321 318 322 338 347 353 356 nan
237 235 235 235 235 236 236 236 234 236 236 250 247 246 247 246 252 250 251 253 253 254 256 257 258 262 265 270 273 275 278 278 277 280 283 282 281 282 284 286 285 289 292 296 303 305 306 304 308 310 308 303 293 293 290 290 288 289 289 292 291 291 292 291 290 287 293 293 306 308 311 304 299 309 312 309 312 315 310 311 320 334 341 343 nan
245 242 240 239 237 234 234 235 234 234 236 245 243 244 245 250 254 250 252 252 254 257 258 257 257 258 260 263 267 267 270 274 270 278 286 285 277 275 273 273 273 275 281 282 303 318 321 325 330 331 328 322 319 318 313 309 301 291 289 291 295 294 299 300 294 290 290 287 292 304 307 306 301 304 308 303 305 308 306 308 308 318 328 329 330
248 247 246 244 241 236 233 233 234 235 235 245 244 241 243 247 244 246 249 251 251 253 255 258 259 259 259 257 257 259 261 263 264 272 279 281 274 273 273 271 273 277 278 279 280 295 317 322 326 329 330 328 325 325 319 311 309 298 300 304 300 297 305 307 304 295 289 288 290 295 306 307 294 295 294 293 300 309 305 302 302 303 313 322 332
247 244 242 243 241 238 235 232 236 237 238 244 241 239 241 246 243 245 248 248 248 249 251 256 259 260 261 263 265 263 261 257 255 264 277 278 273 272 272 270 271 273 274 270 276 278 280 285 293 297 301 309 308 304 305 316 313 305 305 307 300 304 308 308 304 296 292 292 281 296 301 289 283 285 283 275 275 285 290 296 299 299 297 298 307